Regional Weather Roundup
Issued by NWS Charleston, SC

Current Version | Previous Version | Text Only | Print | Product List | Glossary Off
Versions: 1 2 3 4 5 6 7 8 9 10 11 12 13 14 15 16 17 18 19 20 21 22 23 24 25 26 27 28 29 30 31 32 33 34 35 36 37 38 39 40 41 42 43 44 45 46 47 48 49 50

000
ASUS42 KCHS 220910
RWRCHS

REGIONAL WEATHER ROUNDUP
NATIONAL WEATHER SERVICE CHARLESTON SC
500 AM EDT WED OCT 22 2014

NOTE: "FAIR" INDICATES FEW OR NO CLOUDS BELOW 12,000 FEET WITH NO
SIGNIFICANT WEATHER AND/OR OBSTRUCTIONS TO VISIBILITY.

NOT ALL STATIONS ARE QUALITY CONTROLLED BY THE NATIONAL
WEATHER SERVICE. USE DATA WITH CAUTION...ESPECIALLY
DEWPOINT OBSERVATIONS.

SCZ027-030-031-034>040-042>050-221000-
...SOUTH CAROLINA...

CITY           SKY/WX    TMP DP  RH WIND       PRES   REMARKS
N CHARLESTON   CLEAR     54  45  71 N7        29.95R
WATERFRONT PRK NOT AVBL
FORT JOHNSON   NOT AVBL
JOHNS ISLAND   SUNNY     61  46  59 N9        29.95R
PINOPOLIS      NOT AVBL
MONCKS CORNER  FAIR      59  46  63 N10G20    29.95R
SUMMERVILLE    FAIR      52  46  82 CALM      29.97R
BEAUFORT MCAS  CLEAR     57  50  77 N7        29.96R
BEAUFORT ARPT  FAIR      57  50  77 N5        29.95R
HILTON HEAD IS NOT AVBL
GEORGETOWN     NOT AVBL
WALTERBORO     SUNNY     52  52 100 NW3       29.98R
ORANGEBURG     CLEAR     53  42  66 N7        29.98R
BARNWELL       FAIR      48  45  87 CALM      30.00R
AIKEN          FAIR      50  43  76 N5        30.03R
MANNING        FAIR      52  45  76 CALM      29.96R
KINGSTREE      NOT AVBL
COLUMBIA       CLEAR     53  41  63 CALM      29.98S
SUMTER         CLEAR     51  41  68 NW6       29.96S
FLORENCE       CLEAR     52  40  63 N7        29.95S
MYRTLE BEACH   MOCLDY    57  39  51 NW12G20   29.92R
N MYRTLE BEACH PTCLDY    55  42  61 N8        29.91R

$$

GAZ063-065-086>088-099>101-113>116-118-119-134-136>141-150-221000-
...GEORGIA...

CITY           SKY/WX    TMP DP  RH WIND       PRES   REMARKS
SAVANNAH ARPT  CLEAR     56  49  77 N6        29.97R
HUNTER AAF     CLEAR     58  50  75 N6        29.94R
FORT STEWART   CLEAR     56  49  76 N1        29.96R
STATESBORO     NOT AVBL
SYLVANIA       SUNNY     53  52  96 CALM      29.99R
CLAXTON        FAIR      50  50 100 CALM      29.98R
THOMSON        CLEAR     46  46 100 CALM      30.05R
AUGUSTA-BUSH   CLEAR     45  43  93 CALM      30.00R
AUGUSTA-DANIEL CLEAR     54  44  69 N6        30.00R
SWAINSBORO     FAIR      50  50 100 MISG      30.00R
VIDALIA        CLEAR     54  50  87 N3        29.99S
ALMA           CLEAR     53  50  89 CALM      29.98R
WAYCROSS       CLEAR     58  55  89 CALM      29.97S
JESUP          FAIR      59  54  82 N3        29.97R
BRUNSWICK      CLEAR     59  52  77 CALM      29.96S
SAINT SIMONS   CLEAR     60  51  72 NW7       29.95S

$$

SCZ027-028-034-036>038-045-046-048>050-GAZ119-141-221000-
...LAKE AND SUPPLEMENTAL COASTAL OBSERVATIONS...

STATION/POSITION TIME  TEMP    WIND        PRES    WAVE   SWELL
                       AIR SEA DIR/SP/G            HT/PER HT/PER/DIR
                 (UTC) (F)     (DEG/KT/KT) (MB)    (FT/S) (FT/S/D)
UPR LAKE MARION  NOT AVBL
WINYAH BAY       0800   58     330/  5     1013.0S
LAKE MURRAY      0800   53      CALM  /  3 1014.9S
ACE BASIN NERRS  0800   57     360/  1     1013.0S
FORT PULASKI     0900   59     350/  8/ 11 1014.5R
SAPELO ISLAND    NOT AVBL

$$

ANZ835-935-AMZ111-154-330-350-352-354-374-450-454-472-221000-
...C-MAN AND BUOY OBSERVATIONS...

STATION/POSITION TIME  TEMP    WIND        PRES    WAVE   SWELL
                       AIR SEA DIR/SP/G            HT/PER HT/PER/DIR
                 (UTC) (F)     (DEG/KT/KT) (MB)    (FT/S) (FT/S/D)
FOLLY BEACH CMAN 0800   62     350/ 10/ 14 1013.8R
BUOY 41004       0900   69 79  360/ 21/ 25 1011.4S   4/ 4   2/ 8
BUOY 41008       0900   69 76  340/ 16/ 17 1013.4R   3/ 4   2/ 70/ 9
5E ST. MARYS GA  0900      77                N/A     2/ 8
FRYING PAN BUOY  0900   65 75  340/ 19/ 25 1012.1R   5/ 5   2/120/11
BUOY 41025       0900   65     330/ 12/ 16 1008.9R   3/ 4   2/ 90/ 9
CAPE LOOKOUT NC  0800   61     340/ 19/ 22 1010.2S
BUOY 41002       0828   77 79  290/ 17/ 19 1010.4F   4/10   2/ 90/10
BUOY 41010       0900   79 80  260/  8/ 10 1012.7R   3/ 8   2/ 60/ 8
BUOY 41012       NOT AVBL
ST AUGUSTINE FL  0900   66     320/  8/  9 1014.3R
CAPERS NEARSHORE 0800   62      10/ 17/ 19   N/A
FRIPP NEARSHORE  NOT AVBL


$$



USA.gov is the U.S. government's official web portal to all federal, state and local government web resources and services.